Weather in Pelagiada

Russia / Stavropol Krai     45°12′09″N   42°00′54″E
temp.,
°C
wind,
m/s
gust,
m/s
humid.,
%
clouds,
%
prec.,
mm/h
press.,
hPa
HPBL,
m
18 may, tue
tue1800:00+15wnw61196100 7.7 1009591
03:00+13w61393100 7.7 1011607
06:00+13w41198100 4.3 1010574
09:00+15wnw6989100 6.7 1011648
12:00+19wnw57684 0.0 10111189
15:00+20wnw346387 0.1 10111397
18:00+19s11670 0.0 1011733
21:00+15se117823 0.0 101211
19 may, wed
wed1900:00+14ese358373 0.0 101097
03:00+14ese41283100 0.0 1008299
06:00+14ese119067 0.5 100830
09:00+14w4596100 1.9 1010356
12:00+12wsw7169092 1.8 1014621
15:00+18w9136312 2.3 10131529
18:00+16w6136976 0.0 10141129
21:00+11sw127438 0.0 101626
20 may, thu
thu2000:00+11s34740 0.0 101741
03:00+10sse227734 0.0 101615
06:00+12sse238488 0.0 101768
09:00+19sse12520 0.0 1016950
12:00+21e23505 0.0 10151378
15:00+23e33515 0.0 10141450
18:00+21ese36691 0.0 1014202
21:00+16se512770 0.0 1014221
21 may, fri
fri2100:00+15ese515765 0.0 1013308
03:00+15se717645 0.0 1012332
06:00+14se8176227 0.0 1012328
09:00+19se915645 0.0 1011418
12:00+24ese913601 0.0 1010588
15:00+25ese1015615 0.0 1009700
18:00+23se1119637 0.0 1008606
21:00+20se1119615 0.0 1008435
22 may, sat
sat2200:00+17se1019640 0.0 1007355
03:00+15se717723 0.0 1007288
06:00+15ese8177858 0.0 1006254
09:00+21sse6106855 0.0 1007434
12:00+27sse125635 0.0 1008814
15:00+27ese4457100 0.0 1008858
18:00+26se126864 0.0 100720
21:00+22ene2372100 0.0 100843